Location: Newark
(25.0000°N, 73.5000°E)
Time: 00:36:48
(UTC+00:00)

Vanguard 1 - All Passes

Search period start: 31 July 2021 00:00
Search period end: 10 August 2021 00:00
Orbit: 651 x 3831 km, 34.2° (Epoch: 29 July)

Date Brightness Start Highest point End Pass type
(mag) Time Alt. Az. Time Alt. Az. Time Alt. Az.
31 Jul - 03:45:55 10° SW 03:50:11 46° SSE 03:54:54 10° ENE daylight
31 Jul - 06:05:55 10° W 06:10:33 43° N 06:17:32 10° ENE daylight
31 Jul - 08:26:03 10° WNW 08:32:39 49° NNE 08:44:39 10° E daylight
31 Jul - 10:45:43 10° WNW 10:55:33 88° SSW 11:14:19 10° ESE daylight
31 Jul - 13:07:15 10° W 13:20:11 42° SW 13:40:03 10° SSE daylight
31 Jul - 15:38:29 10° WSW 15:46:51 14° SW 15:56:05 10° SSW visible
01 Aug - 04:06:37 10° WSW 04:11:02 79° SSE 04:16:07 10° ENE daylight
01 Aug - 06:27:06 10° WNW 06:31:49 38° N 06:39:05 10° ENE daylight
01 Aug - 08:46:58 10° WNW 08:53:57 56° NNE 09:06:57 10° E daylight
01 Aug - 11:06:42 10° WNW 11:16:52 74° SSW 11:35:54 10° SE daylight
01 Aug - 13:29:14 10° W 13:41:49 33° SW 14:00:00 10° SSE daylight
02 Aug - 02:08:41 10° SSW 02:12:08 18° SSE 02:15:12 10° ESE daylight
02 Aug - 04:27:36 10° WSW 04:31:58 67° NNW 04:37:13 10° ENE daylight
02 Aug - 06:48:15 10° WNW 06:53:09 37° N 07:00:49 10° ENE daylight
02 Aug - 09:07:51 10° WNW 09:15:11 66° NNE 09:29:12 10° ESE daylight
02 Aug - 11:27:48 10° WNW 11:38:13 60° SSW 11:57:07 10° SE daylight
02 Aug - 13:51:52 10° W 14:03:32 24° SW 14:19:17 10° S visible
03 Aug - 02:28:35 10° SSW 02:33:03 31° SSE 02:36:58 10° E daylight
03 Aug - 04:48:46 10° W 04:53:01 47° NNW 04:58:18 10° ENE daylight
03 Aug - 07:09:19 10° WNW 07:14:28 39° N 07:22:45 10° ENE daylight
03 Aug - 09:28:42 10° WNW 09:36:23 79° NNE 09:51:15 10° ESE daylight
03 Aug - 11:49:05 10° W 11:59:40 47° SSW 12:17:54 10° SE daylight
03 Aug - 14:15:43 10° WSW 14:25:27 17° SW 14:37:30 10° S visible
04 Aug - 02:49:05 10° SW 02:53:56 53° SSE 02:58:15 10° ENE daylight
04 Aug - 05:10:02 10° WNW 05:14:11 36° N 05:19:28 10° ENE daylight
04 Aug - 07:30:17 10° WNW 07:35:43 43° NNE 07:44:49 10° E daylight
04 Aug - 09:49:34 10° WNW 09:57:33 85° SSW 10:13:02 10° ESE daylight
04 Aug - 12:10:40 10° W 12:21:12 37° SSW 12:38:15 10° SSE daylight
04 Aug - 14:43:00 10° SW 14:47:35 11° SW 14:52:36 10° SSW visible
05 Aug - 00:51:05 10° S 00:54:32 15° SSE 00:57:22 10° ESE daylight
05 Aug - 03:09:57 10° WSW 03:14:50 87° SSE 03:19:19 10° ENE daylight
05 Aug - 05:31:19 10° WNW 05:35:25 32° N 05:40:48 10° ENE daylight
05 Aug - 07:51:09 10° WNW 07:56:54 51° NNE 08:06:55 10° E daylight
05 Aug - 10:10:32 10° WNW 10:18:46 68° SSW 10:34:30 10° SE daylight
05 Aug - 12:32:44 10° W 12:42:51 28° SSW 12:58:02 10° SSE daylight
06 Aug - 01:10:33 10° SSW 01:15:39 24° SSE 01:19:31 10° E daylight
06 Aug - 03:31:06 10° WSW 03:35:46 60° NNW 03:40:16 10° ENE daylight
06 Aug - 05:52:31 10° WNW 05:56:41 31° N 06:02:19 10° ENE daylight
06 Aug - 08:11:59 10° WNW 08:18:00 64° NNE 08:28:57 10° ESE daylight
06 Aug - 10:31:38 10° WNW 10:40:03 53° SSW 10:55:35 10° SE daylight
06 Aug - 12:55:35 10° WSW 13:04:38 20° SSW 13:17:02 10° S daylight
07 Aug - 01:30:49 10° SW 01:36:41 39° SSE 01:40:58 10° E daylight
07 Aug - 03:52:25 10° W 03:56:48 42° NNW 04:01:12 10° NE daylight
07 Aug - 06:13:35 10° NW 06:17:55 33° N 06:24:03 10° ENE daylight
07 Aug - 08:32:47 10° WNW 08:39:05 80° NNE 08:50:48 10° ESE daylight
07 Aug - 10:52:56 10° W 11:01:27 41° SSW 11:16:15 10° SSE daylight
07 Aug - 13:20:08 10° WSW 13:26:37 14° SSW 13:34:27 10° S daylight
07 Aug - 23:32:34 10° S 23:36:31 14° SSE 23:39:43 10° ESE visible
08 Aug - 01:51:33 10° SW 01:57:40 62° SSE 02:02:05 10° ENE daylight
08 Aug - 04:13:51 10° WNW 04:17:55 32° N 04:22:13 10° NE daylight
08 Aug - 06:34:31 10° NW 06:39:06 38° NNE 06:45:55 10° E daylight
08 Aug - 08:53:39 10° WNW 09:00:10 80° SSW 09:12:23 10° ESE daylight
08 Aug - 11:14:37 10° W 11:22:57 30° SSW 11:36:25 10° SSE daylight
08 Aug - 23:51:36 10° SSW 23:57:52 22° SSE 00:02:17 10° ESE visible
09 Aug - 02:12:39 10° WSW 02:18:36 85° NNW 02:23:03 10° ENE daylight
09 Aug - 04:35:14 10° WNW 04:39:07 28° N 04:43:22 10° ENE daylight
09 Aug - 06:55:22 10° NW 07:00:12 47° NNE 07:07:48 10° E daylight
09 Aug - 09:14:37 10° WNW 09:21:18 60° SSW 09:33:41 10° SE daylight
09 Aug - 11:36:52 10° WSW 11:44:35 22° SSW 11:55:55 10° SSE daylight
